• In Deutschland
  • Länderverzeichnis
  • Für 7 Tage
  • Wassertemperatur
  • Satellitenkarten
  • Wetterkarte
  • Widgets
  • user-avatar
    Anmelden

    Stündliche Wetter Daverdisse

    Heute, 23 November, Donnerstag

    Zeit Temperatur Niederschläge Wind Luftdruck Luftfeuchtigkeit
    00:00 +5°C° 0 mm 6 m/S 719 mmHg 77%
    01:00 +5°C° 0 mm 6 m/S 719 mmHg 77%
    02:00 +5°C° 0 mm 6 m/S 718 mmHg 77%
    03:00 +5°C° 0 mm 6 m/S 718 mmHg 77%
    04:00 +6°C° 0 mm 7 m/S 718 mmHg 76%
    05:00 +6°C° 0 mm 7 m/S 718 mmHg 74%
    06:00 +5°C° 0 mm 6 m/S 718 mmHg 78%
    07:00 +6°C° 0 mm 7 m/S 718 mmHg 75%
    08:00 +7°C° 0 mm 8 m/S 718 mmHg 73%
    09:00 +8°C° 0 mm 9 m/S 719 mmHg 70%
    10:00 +8°C° 0 mm 9 m/S 719 mmHg 71%
    11:00 +10°C° 0 mm 9 m/S 720 mmHg 72%
    12:00 +11°C° 0 mm 9 m/S 720 mmHg 72%
    13:00 +11°C° 0,1 mm 8 m/S 721 mmHg 75%
    14:00 +10°C° 0,1 mm 7 m/S 721 mmHg 79%
    15:00 +10°C° 0,1 mm 6 m/S 722 mmHg 82%
    16:00 +10°C° 0,3 mm 6 m/S 722 mmHg 85%
    17:00 +9°C° 0,3 mm 5 m/S 722 mmHg 87%
    18:00 +9°C° 0,3 mm 5 m/S 723 mmHg 90%
    19:00 +8°C° 0,1 mm 4 m/S 723 mmHg 91%
    20:00 +9°C° 0,1 mm 3 m/S 723 mmHg 92%
    21:00 +9°C° 0,1 mm 3 m/S 724 mmHg 93%
    22:00 +9°C° 0,1 mm 3 m/S 723 mmHg 93%
    23:00 +9°C° 0,1 mm 3 m/S 723 mmHg 92%

    Morgen, 24 November, Freitag

    Zeit Temperatur Niederschläge Wind Luftdruck Luftfeuchtigkeit
    00:00 +8°C° 0,1 mm 4 m/S 723 mmHg 92%
    01:00 +8°C° 0,3 mm 5 m/S 722 mmHg 91%
    02:00 +8°C° 0,3 mm 6 m/S 722 mmHg 89%
    03:00 +8°C° 0,3 mm 7 m/S 721 mmHg 88%
    04:00 +8°C° 0,5 mm 7 m/S 721 mmHg 88%
    05:00 +9°C° 0,5 mm 8 m/S 721 mmHg 88%
    06:00 +9°C° 0,5 mm 8 m/S 720 mmHg 88%
    07:00 +9°C° 0,2 mm 8 m/S 721 mmHg 88%
    08:00 +9°C° 0,2 mm 8 m/S 721 mmHg 88%
    09:00 +9°C° 0,2 mm 8 m/S 722 mmHg 87%
    10:00 +8°C° 0,3 mm 7 m/S 722 mmHg 87%
    11:00 +8°C° 0,3 mm 6 m/S 723 mmHg 87%
    12:00 +7°C° 0,3 mm 5 m/S 723 mmHg 87%
    13:00 +6°C° 0 mm 4 m/S 724 mmHg 86%
    14:00 +6°C° 0 mm 4 m/S 725 mmHg 86%
    15:00 +5°C° 0 mm 3 m/S 725 mmHg 85%
    16:00 +5°C° 0 mm 2 m/S 725 mmHg 87%
    17:00 +5°C° 0 mm 1 m/S 726 mmHg 90%
    18:00 +4°C° 0 mm 1 m/S 726 mmHg 93%
    19:00 +4°C° 0 mm 1 m/S 726 mmHg 92%
    20:00 +4°C° 0 mm 1 m/S 726 mmHg 91%
    21:00 +4°C° 0 mm 1 m/S 726 mmHg 91%
    22:00 +4°C° 0,1 mm 1 m/S 726 mmHg 91%
    23:00 +4°C° 0,1 mm 1 m/S 726 mmHg 91%

    übermorgen, 25 November, Samstag

    Zeit Temperatur Niederschläge Wind Luftdruck Luftfeuchtigkeit
    00:00 +3°C° 0,1 mm 2 m/S 725 mmHg 91%
    01:00 +3°C° 0,1 mm 2 m/S 725 mmHg 92%
    02:00 +3°C° 0,1 mm 2 m/S 724 mmHg 92%
    03:00 +3°C° 0,1 mm 2 m/S 723 mmHg 93%
    04:00 +4°C° 0,2 mm 1 m/S 723 mmHg 94%
    05:00 +4°C° 0,2 mm 1 m/S 722 mmHg 95%
    06:00 +4°C° 0,2 mm 1 m/S 722 mmHg 96%
    07:00 +4°C° 0,8 mm 1 m/S 722 mmHg 96%
    08:00 +4°C° 0,8 mm 1 m/S 721 mmHg 95%
    09:00 +5°C° 0,8 mm 1 m/S 721 mmHg 95%
    10:00 +5°C° 2 mm 1 m/S 721 mmHg 95%
    11:00 +4°C° 2 mm 2 m/S 721 mmHg 95%
    12:00 +4°C° 2 mm 2 m/S 721 mmHg 95%
    13:00 +1°C° 1,6 mm 4 m/S 722 mmHg 93%
    14:00 +1°C° 1,6 mm 6 m/S 722 mmHg 92%
    15:00 0°C° 1,6 mm 7 m/S 723 mmHg 90%
    16:00 -1°C° 0,6 mm 7 m/S 724 mmHg 88%
    17:00 -1°C° 0,6 mm 6 m/S 725 mmHg 86%
    18:00 -1°C° 0,6 mm 6 m/S 726 mmHg 84%
    19:00 -1°C° 0 mm 5 m/S 727 mmHg 85%
    20:00 -1°C° 0 mm 5 m/S 728 mmHg 87%
    21:00 -2°C° 0 mm 4 m/S 729 mmHg 88%
    22:00 -2°C° 0 mm 4 m/S 729 mmHg 90%
    23:00 -3°C° 0 mm 4 m/S 730 mmHg 91%

    26 November, Sonntag

    Zeit Temperatur Niederschläge Wind Luftdruck Luftfeuchtigkeit
    00:00 -3°C° 0 mm 4 m/S 730 mmHg 92%
    01:00 -3°C° 0 mm 4 m/S 730 mmHg 93%
    02:00 -2°C° 0 mm 3 m/S 730 mmHg 93%
    03:00 -4°C° 0 mm 3 m/S 730 mmHg 93%
    04:00 -4°C° 0 mm 3 m/S 731 mmHg 93%
    05:00 -4°C° 0 mm 3 m/S 731 mmHg 93%
    06:00 -4°C° 0 mm 3 m/S 731 mmHg 93%
    07:00 -3°C° 0 mm 4 m/S 731 mmHg 91%
    08:00 -2°C° 0 mm 4 m/S 732 mmHg 88%
    09:00 -1°C° 0 mm 4 m/S 732 mmHg 86%
    10:00 -1°C° 0 mm 5 m/S 732 mmHg 83%
    11:00 0°C° 0 mm 5 m/S 732 mmHg 80%
    12:00 +1°C° 0 mm 5 m/S 732 mmHg 76%
    13:00 +1°C° 0,1 mm 5 m/S 732 mmHg 78%
    14:00 +1°C° 0,1 mm 5 m/S 732 mmHg 80%
    15:00 +1°C° 0,1 mm 4 m/S 732 mmHg 82%
    16:00 0°C° 0,1 mm 4 m/S 732 mmHg 84%
    17:00 0°C° 0,1 mm 4 m/S 732 mmHg 87%
    18:00 -1°C° 0,1 mm 4 m/S 732 mmHg 90%
    19:00 0°C° 0 mm 3 m/S 732 mmHg 91%
    20:00 -1°C° 0 mm 3 m/S 732 mmHg 92%
    21:00 -1°C° 0 mm 3 m/S 733 mmHg 93%
    22:00 -1°C° 0 mm 3 m/S 733 mmHg 94%
    23:00 -1°C° 0 mm 3 m/S 733 mmHg 94%

    27 November, Montag

    Zeit Temperatur Niederschläge Wind Luftdruck Luftfeuchtigkeit
    00:00 -2°C° 0 mm 3 m/S 733 mmHg 94%
    01:00 -2°C° 0 mm 3 m/S 732 mmHg 94%
    02:00 -2°C° 0 mm 3 m/S 732 mmHg 95%
    03:00 -2°C° 0 mm 3 m/S 732 mmHg 95%
    04:00 -2°C° 0 mm 3 m/S 732 mmHg 95%
    05:00 -2°C° 0 mm 3 m/S 732 mmHg 95%
    06:00 -2°C° 0 mm 3 m/S 732 mmHg 95%
    07:00 -1°C° 0 mm 3 m/S 732 mmHg 94%
    08:00 -1°C° 0 mm 4 m/S 732 mmHg 92%
    09:00 -1°C° 0 mm 4 m/S 732 mmHg 90%
    10:00 0°C° 0,1 mm 5 m/S 731 mmHg 90%
    11:00 +1°C° 0,1 mm 5 m/S 731 mmHg 90%
    12:00 +1°C° 0,1 mm 6 m/S 730 mmHg 89%
    13:00 +1°C° 0,2 mm 6 m/S 730 mmHg 89%
    14:00 +2°C° 0,2 mm 6 m/S 729 mmHg 88%
    15:00 +2°C° 0,2 mm 6 m/S 728 mmHg 88%
    16:00 +2°C° 0,2 mm 7 m/S 727 mmHg 88%
    17:00 0°C° 0,2 mm 8 m/S 727 mmHg 87%
    18:00 0°C° 0,2 mm 8 m/S 726 mmHg 87%
    19:00 0°C° 1,3 mm 8 m/S 725 mmHg 88%
    20:00 0°C° 1,3 mm 8 m/S 725 mmHg 89%
    21:00 +1°C° 1,3 mm 8 m/S 724 mmHg 91%
    22:00 +2°C° 0,9 mm 7 m/S 724 mmHg 91%
    23:00 +2°C° 0,9 mm 7 m/S 723 mmHg 91%

    28 November, Dienstag

    Zeit Temperatur Niederschläge Wind Luftdruck Luftfeuchtigkeit
    00:00 +2°C° 0,9 mm 6 m/S 723 mmHg 92%
    01:00 +2°C° 0,4 mm 6 m/S 723 mmHg 92%
    02:00 +2°C° 0,4 mm 6 m/S 723 mmHg 93%
    03:00 +2°C° 0,4 mm 5 m/S 723 mmHg 93%
    04:00 +2°C° 0,3 mm 5 m/S 722 mmHg 94%
    05:00 +1°C° 0,3 mm 4 m/S 722 mmHg 94%
    06:00 +1°C° 0,3 mm 4 m/S 722 mmHg 95%
    07:00 +1°C° 0,2 mm 4 m/S 722 mmHg 95%
    08:00 +3°C° 0,2 mm 4 m/S 722 mmHg 94%
    09:00 +3°C° 0,2 mm 4 m/S 722 mmHg 94%
    10:00 +3°C° 0,2 mm 4 m/S 722 mmHg 92%
    11:00 +4°C° 0,2 mm 4 m/S 722 mmHg 89%
    12:00 +4°C° 0,2 mm 4 m/S 721 mmHg 87%
    13:00 +3°C° 0,1 mm 4 m/S 721 mmHg 87%
    14:00 +3°C° 0,1 mm 3 m/S 721 mmHg 88%
    15:00 +2°C° 0,1 mm 3 m/S 721 mmHg 88%
    16:00 +1°C° 0 mm 3 m/S 721 mmHg 90%
    17:00 0°C° 0 mm 3 m/S 721 mmHg 92%
    18:00 -1°C° 0 mm 2 m/S 721 mmHg 94%
    19:00 -1°C° 0,1 mm 2 m/S 721 mmHg 94%
    20:00 -1°C° 0,1 mm 3 m/S 721 mmHg 94%
    21:00 -1°C° 0,1 mm 3 m/S 721 mmHg 94%
    22:00 -1°C° 0,3 mm 3 m/S 721 mmHg 94%
    23:00 -1°C° 0,3 mm 3 m/S 721 mmHg 94%
    Mehr zeigen